Location: Byszew
(52.1813°N, 19.2693°E)
Time: 17:31:48
(UTC+00:00)

ERBS - Pass Details

Date: 03 March 2021
Orbit: 408 x 412 km, 57.0° (Epoch: 16 April)

Event Time Altitude Azimuth Distance (km) Brightness Sun altitude
Rises 17:22:46 0° 238° (WSW) 2,348 7.1 -9.5°
Reaches altitude 10° 17:24:50 10° 238° (WSW) 1,488 6.0 -9.8°
Maximum altitude 17:28:10 85° 149° (SSE) 422 2.2 -10.3°
Enters shadow 17:31:02 13° 63° (ENE) 1,301 4.2 -10.7°
